Location: *
(43.9905°S, 176.4941°W)
Time: 07:57:46
(UTC+00:00)

Meteor 1-11 - Pass Details

Date: 08 December 2019
Orbit: 840 x 887 km, 81.2° (Epoch: 20 January)

Event Time Altitude Azimuth Distance (km) Brightness Sun altitude
Rises 11:25:09 0° 189° (S) 3,473 8.8 -23.2°
Reaches altitude 10° 11:27:36 10° 187° (S) 2,536 7.8 -23.3°
Maximum altitude 11:33:23 73° 101° (ESE) 923 4.3 -23.3°
Enters shadow 11:34:59 48° 32° (NNE) 1,133 4.5 -23.3°
